KJ4FOP-1 Weather Reports


time (UTC)temp
C
wind
direction
speed
KPH
gust
KPH
rain 1hr
cm
rain 24hr
cm
rain mn
cm
humidity
%
barometer
mb
20260906150603 32 285 0.0 1.6 0.00 0.00 0.00 59 1012.8
20260906145403 31 313 0.0 3.2 0.00 0.00 0.00 61 1012.8
20260906145306 31 318 0.0 3.2 0.00 0.00 0.00 61 1012.8
20260906145204 31 309 0.0 3.2 0.00 0.00 0.00 61 1012.9
20260906145103 31 299 0.0 3.2 0.00 0.00 0.00 61 1012.9
20260906145004 31 280 0.0 3.2 0.00 0.00 0.00 62 1012.9
20260906144903 31 282 0.0 3.2 0.00 0.00 0.00 63 1012.8
20260906144803 31 282 0.0 3.2 0.00 0.00 0.00 66 1012.9
20260906144703 31 282 0.0 3.2 0.00 0.00 0.00 65 1012.8
20260906144603 31 282 0.0 3.2 0.00 0.00 0.00 64 1012.9
20260906144504 31 282 0.0 3.2 0.00 0.00 0.00 64 1012.9
20260906144403 30 282 0.0 3.2 0.00 0.00 0.00 65 1012.9
20260906144304 30 282 0.0 3.2 0.00 0.00 0.00 65 1012.9
20260906144204 30 286 0.0 3.2 0.00 0.00 0.00 64 1012.9
20260906144103 30 292 0.0 3.2 0.00 0.00 0.00 65 1012.9
20260906144004 30 291 0.0 3.2 0.00 0.00 0.00 64 1012.9
20260906143903 30 0 0.0 0.0 0.00 0.00 0.00 63 1012.9
20260906143803 30 0 0.0 0.0 0.00 0.00 0.00 64 1012.9
20260906143703 30 0 0.0 0.0 0.00 0.00 0.00 69 1013.0
20260906143603 30 0 0.0 0.0 0.00 0.00 0.00 69 1013.0
20260906143504 30 0 0.0 0.0 0.00 0.00 0.00 69 1013.0
20260906143403 30 267 0.0 1.6 0.00 0.00 0.00 69 1012.9
20260906143303 30 263 0.0 3.2 0.00 0.00 0.00 69 1012.9
20260906143204 30 266 0.0 3.2 0.00 0.00 0.00 69 1013.0
20260906143103 30 266 0.0 3.2 0.00 0.00 0.00 69 1012.9
20260906143004 30 266 0.0 3.2 0.00 0.00 0.00 68 1013.0
20260906142904 30 266 0.0 3.2 0.00 0.00 0.00 68 1012.9
20260906142803 30 270 0.0 3.2 0.00 0.00 0.00 69 1013.0
20260906142703 30 275 0.0 3.2 0.00 0.00 0.00 70 1013.0
20260906142603 30 275 0.0 3.2 0.00 0.00 0.00 71 1013.0
20260906142503 30 275 0.0 3.2 0.00 0.00 0.00 68 1013.0
20260906142403 30 276 0.0 3.2 0.00 0.00 0.00 66 1012.9
20260906142306 30 301 0.0 1.6 0.00 0.00 0.00 68 1013.0
20260906141503 29 301 0.0 3.2 0.00 0.00 0.00 69 1013.0
20260906141404 29 301 0.0 3.2 0.00 0.00 0.00 69 1013.0
20260906141203 28 300 0.0 3.2 0.00 0.00 0.00 72 1013.0
20260906141003 28 300 0.0 3.2 0.00 0.00 0.00 71 1013.0
20260906140904 28 306 0.0 3.2 0.00 0.00 0.00 71 1013.0
20260906140703 28 308 0.0 3.2 0.00 0.00 0.00 75 1012.9
20260906140504 28 317 0.0 1.6 0.00 0.00 0.00 71 1013.0
20260906140303 28 317 0.0 1.6 0.00 0.00 0.00 74 1013.0
20260906135903 27 0 0.0 0.0 0.00 0.00 0.00 79 1013.0
20260906135703 27 0 0.0 0.0 0.00 0.00 0.00 79 1013.0
20260906135203 27 0 0.0 0.0 0.00 0.00 0.00 81 1012.9
20260906134804 26 0 0.0 0.0 0.00 0.00 0.00 82 1012.9
20260906134603 26 0 0.0 0.0 0.00 0.00 0.00 82 1013.0
20260906134504 26 0 0.0 0.0 0.00 0.00 0.00 82 1013.0
20260906134403 26 0 0.0 0.0 0.00 0.00 0.00 82 1012.9
20260906134303 26 0 0.0 0.0 0.00 0.00 0.00 82 1012.9
20260906134203 26 0 0.0 0.0 0.00 0.00 0.00 83 1012.9
20260906134104 26 0 0.0 0.0 0.00 0.00 0.00 83 1012.9
20260906134003 26 0 0.0 0.0 0.00 0.00 0.00 83 1012.9
20260906133904 26 0 0.0 0.0 0.00 0.00 0.00 82 1012.9
20260906133803 26 0 0.0 0.0 0.00 0.00 0.00 83 1012.8
20260906133703 26 0 0.0 0.0 0.00 0.00 0.00 83 1012.9
20260906133603 26 0 0.0 0.0 0.00 0.00 0.00 83 1012.9
20260906133504 26 0 0.0 0.0 0.00 0.00 0.00 83 1012.9
20260906133403 26 0 0.0 0.0 0.00 0.00 0.00 83 1012.9
20260906133303 26 0 0.0 0.0 0.00 0.00 0.00 83 1012.9
20260906133203 26 0 0.0 0.0 0.00 0.00 0.00 83 1012.9
20260906133103 26 0 0.0 0.0 0.00 0.00 0.00 83 1013.0
20260906133004 26 0 0.0 0.0 0.00 0.00 0.00 83 1013.0
20260906132903 26 0 0.0 0.0 0.00 0.00 0.00 83 1013.0
20260906132803 26 0 0.0 0.0 0.00 0.00 0.00 83 1013.0
20260906132703 26 0 0.0 0.0 0.00 0.00 0.00 82 1013.0
20260906132604 26 0 0.0 0.0 0.00 0.00 0.00 82 1013.0
20260906132504 26 0 0.0 0.0 0.00 0.00 0.00 82 1013.0
20260906132403 26 0 0.0 0.0 0.00 0.00 0.00 83 1013.0
20260906132306 26 0 0.0 0.0 0.00 0.00 0.00 82 1013.0
20260906132203 26 0 0.0 0.0 0.00 0.00 0.00 83 1013.0
20260906132103 26 0 0.0 0.0 0.00 0.00 0.00 83 1013.0
20260906132004 26 0 0.0 0.0 0.00 0.00 0.00 83 1013.0
20260906131903 26 0 0.0 0.0 0.00 0.00 0.00 83 1013.0
20260906131804 26 0 0.0 0.0 0.00 0.00 0.00 83 1013.0
20260906131603 25 0 0.0 0.0 0.00 0.00 0.00 83 1013.1
20260906131503 25 0 0.0 0.0 0.00 0.00 0.00 83 1013.1
20260906131303 25 0 0.0 0.0 0.00 0.00 0.00 84 1013.1
20260906130303 25 0 0.0 0.0 0.00 0.00 0.00 84 1012.9
20260906123103 24 0 0.0 0.0 0.00 0.00 0.00 85 1012.6
20260906123003 24 0 0.0 0.0 0.00 0.00 0.00 85 1012.7
20260906122904 24 0 0.0 0.0 0.00 0.00 0.00 85 1012.6
20260906122803 24 0 0.0 0.0 0.00 0.00 0.00 85 1012.6
20260906122703 24 0 0.0 0.0 0.00 0.00 0.00 85 1012.6
20260906122603 24 0 0.0 0.0 0.00 0.00 0.00 85 1012.6
20260906122504 24 0 0.0 0.0 0.00 0.00 0.00 85 1012.6
20260906122403 24 0 0.0 0.0 0.00 0.00 0.00 85 1012.6
20260906122306 24 0 0.0 0.0 0.00 0.00 0.00 85 1012.6
20260906122203 24 0 0.0 0.0 0.00 0.00 0.00 85 1012.5
20260906122103 24 0 0.0 0.0 0.00 0.00 0.00 85 1012.5
20260906122004 24 0 0.0 0.0 0.00 0.00 0.00 85 1012.5
20260906121903 24 0 0.0 0.0 0.00 0.00 0.00 85 1012.5
20260906121803 24 0 0.0 0.0 0.00 0.00 0.00 85 1012.5
20260906121704 24 0 0.0 0.0 0.00 0.00 0.00 85 1012.4
20260906121603 24 0 0.0 0.0 0.00 0.00 0.00 86 1012.4
20260906121503 24 0 0.0 0.0 0.00 0.00 0.00 85 1012.4
20260906121404 24 0 0.0 0.0 0.00 0.00 0.00 85 1012.4
20260906121303 23 0 0.0 0.0 0.00 0.00 0.00 85 1012.4
20260906121203 23 0 0.0 0.0 0.00 0.00 0.00 85 1012.4
20260906121103 23 0 0.0 0.0 0.00 0.00 0.00 85 1012.4
20260906120903 23 0 0.0 0.0 0.00 0.00 0.00 85 1012.2
20260906120803 23 0 0.0 0.0 0.00 0.00 0.00 85 1012.3
20260906120703 23 0 0.0 0.0 0.00 0.00 0.00 85 1012.3
20260906120603 23 0 0.0 0.0 0.00 0.00 0.00 85 1012.3
20260906120504 23 0 0.0 0.0 0.00 0.00 0.00 86 1012.2
20260906120403 23 0 0.0 0.0 0.00 0.00 0.00 86 1012.2
20260906120303 23 0 0.0 0.0 0.00 0.00 0.00 86 1012.2
20260906120204 23 0 0.0 0.0 0.00 0.00 0.00 86 1012.2
20260906120104 23 0 0.0 0.0 0.00 0.00 0.00 86 1012.2
20260906120004 23 0 0.0 0.0 0.00 0.00 0.00 85 1012.2
20260906115904 23 0 0.0 0.0 0.00 0.00 0.00 86 1012.1
20260906115804 23 0 0.0 0.0 0.00 0.00 0.00 85 1012.2
20260906115203 23 0 0.0 0.0 0.00 0.00 0.00 85 1012.0
20260906114703 23 0 0.0 0.0 0.00 0.00 0.00 85 1012.0
20260906114504 23 0 0.0 0.0 0.00 0.00 0.00 85 1012.0
20260906113603 23 0 0.0 0.0 0.00 0.00 0.00 85 1011.8
20260906112504 24 0 0.0 0.0 0.00 0.00 0.00 85 1011.8
20260906112404 24 0 0.0 0.0 0.00 0.00 0.00 85 1011.7
20260906112203 24 0 0.0 0.0 0.00 0.00 0.00 85 1011.7
20260906112004 24 0 0.0 0.0 0.00 0.00 0.00 85 1011.7
20260906111903 24 0 0.0 0.0 0.00 0.00 0.00 85 1011.7
20260906111703 24 0 0.0 0.0 0.00 0.00 0.00 85 1011.7
20260906111604 24 0 0.0 0.0 0.00 0.00 0.00 85 1011.7
20260906111504 24 0 0.0 0.0 0.00 0.00 0.00 85 1011.7
20260906111403 24 0 0.0 0.0 0.00 0.00 0.00 85 1011.7
20260906111304 24 0 0.0 0.0 0.00 0.00 0.00 85 1011.7
20260906111204 24 0 0.0 0.0 0.00 0.00 0.00 85 1011.7
20260906111103 24 0 0.0 0.0 0.00 0.00 0.00 84 1011.7
20260906111004 24 0 0.0 0.0 0.00 0.00 0.00 84 1011.7
20260906110903 24 0 0.0 0.0 0.00 0.00 0.00 84 1011.7
20260906110803 24 0 0.0 0.0 0.00 0.00 0.00 84 1011.7
20260906110704 24 0 0.0 0.0 0.00 0.00 0.00 84 1011.7
20260906110603 24 0 0.0 0.0 0.00 0.00 0.00 84 1011.7
20260906110503 24 0 0.0 0.0 0.00 0.00 0.00 84 1011.6
20260906110404 24 0 0.0 0.0 0.00 0.00 0.00 84 1011.6
20260906110303 24 0 0.0 0.0 0.00 0.00 0.00 84 1011.6
20260906110203 24 0 0.0 0.0 0.00 0.00 0.00 84 1011.5
20260906110103 24 0 0.0 0.0 0.00 0.00 0.00 84 1011.6
20260906110004 24 0 0.0 0.0 0.00 0.00 0.00 84 1011.6
20260906105903 24 0 0.0 0.0 0.00 0.00 0.00 84 1011.5
20260906105803 24 0 0.0 0.0 0.00 0.00 0.00 84 1011.5
20260906105703 24 0 0.0 0.0 0.00 0.00 0.00 84 1011.6
20260906105604 24 0 0.0 0.0 0.00 0.00 0.00 84 1011.6
20260906105504 24 0 0.0 0.0 0.00 0.00 0.00 84 1011.6
20260906105403 24 314 0.0 1.6 0.00 0.00 0.00 84 1011.6
20260906105306 24 314 0.0 1.6 0.00 0.00 0.00 84 1011.6
20260906105203 24 314 0.0 1.6 0.00 0.00 0.00 84 1011.6
20260906105103 24 314 0.0 1.6 0.00 0.00 0.00 84 1011.6
20260906105004 24 314 0.0 1.6 0.00 0.00 0.00 84 1011.6
20260906104903 24 314 0.0 1.6 0.00 0.00 0.00 84 1011.6
20260906104803 24 314 0.0 1.6 0.00 0.00 0.00 84 1011.6
20260906104703 24 314 0.0 1.6 0.00 0.00 0.00 84 1011.6
20260906104603 24 314 0.0 1.6 0.00 0.00 0.00 84 1011.6
20260906104504 24 314 0.0 1.6 0.00 0.00 0.00 84 1011.6
20260906104304 24 0 0.0 0.0 0.00 0.00 0.00 84 1011.6
20260906104204 24 0 0.0 0.0 0.00 0.00 0.00 84 1011.6
20260906104103 24 0 0.0 0.0 0.00 0.00 0.00 84 1011.6
20260906104004 24 0 0.0 0.0 0.00 0.00 0.00 84 1011.6
20260906103904 24 0 0.0 0.0 0.00 0.00 0.00 84 1011.6
20260906103803 24 0 0.0 0.0 0.00 0.00 0.00 84 1011.6
20260906103703 24 0 0.0 0.0 0.00 0.00 0.00 84 1011.6
20260906103603 24 0 0.0 0.0 0.00 0.00 0.00 84 1011.6
20260906103504 24 0 0.0 0.0 0.00 0.00 0.00 83 1011.6
20260906103403 24 0 0.0 0.0 0.00 0.00 0.00 83 1011.6
20260906103203 24 0 0.0 0.0 0.00 0.00 0.00 83 1011.6
20260906103104 24 0 0.0 0.0 0.00 0.00 0.00 83 1011.6
20260906103004 25 0 0.0 0.0 0.00 0.00 0.00 83 1011.6
20260906102903 25 0 0.0 0.0 0.00 0.00 0.00 83 1011.6
20260906102804 24 0 0.0 0.0 0.00 0.00 0.00 83 1011.6
20260906102703 25 0 0.0 0.0 0.00 0.00 0.00 83 1011.5
20260906102603 25 0 0.0 0.0 0.00 0.00 0.00 83 1011.5
20260906102504 25 0 0.0 0.0 0.00 0.00 0.00 83 1011.5
20260906102403 25 0 0.0 0.0 0.00 0.00 0.00 83 1011.6
20260906102306 25 0 0.0 0.0 0.00 0.00 0.00 83 1011.6
20260906102203 25 0 0.0 0.0 0.00 0.00 0.00 83 1011.5
20260906102103 25 0 0.0 0.0 0.00 0.00 0.00 83 1011.6
20260906102004 25 0 0.0 0.0 0.00 0.00 0.00 83 1011.5
20260906101903 25 0 0.0 0.0 0.00 0.00 0.00 83 1011.6
20260906101803 25 0 0.0 0.0 0.00 0.00 0.00 83 1011.5
20260906101704 25 0 0.0 0.0 0.00 0.00 0.00 83 1011.5
20260906101604 25 0 0.0 0.0 0.00 0.00 0.00 83 1011.5
20260906101503 25 0 0.0 0.0 0.00 0.00 0.00 83 1011.5
20260906101404 25 0 0.0 0.0 0.00 0.00 0.00 83 1011.5
20260906101303 25 0 0.0 0.0 0.00 0.00 0.00 83 1011.5
20260906101203 25 0 0.0 0.0 0.00 0.00 0.00 83 1011.5
20260906101103 25 0 0.0 0.0 0.00 0.00 0.00 83 1011.5
20260906100803 25 0 0.0 0.0 0.00 0.00 0.00 83 1011.5
20260906095204 25 0 0.0 0.0 0.00 0.00 0.00 82 1011.3
20260906094604 25 0 0.0 0.0 0.00 0.00 0.00 82 1011.4
20260906094403 25 0 0.0 0.0 0.00 0.00 0.00 82 1011.4
20260906094303 25 0 0.0 0.0 0.00 0.00 0.00 82 1011.3
20260906094203 25 0 0.0 0.0 0.00 0.00 0.00 82 1011.3
20260906094103 25 0 0.0 0.0 0.00 0.00 0.00 83 1011.3
20260906094004 25 0 0.0 0.0 0.00 0.00 0.00 82 1011.3
20260906093903 25 0 0.0 0.0 0.00 0.00 0.00 83 1011.3
20260906093804 25 0 0.0 0.0 0.00 0.00 0.00 83 1011.3
20260906093704 25 0 0.0 0.0 0.00 0.00 0.00 83 1011.3
20260906093603 25 0 0.0 0.0 0.00 0.00 0.00 82 1011.2
20260906093503 25 0 0.0 0.0 0.00 0.00 0.00 82 1011.3
20260906093404 25 0 0.0 0.0 0.00 0.00 0.00 82 1011.3
20260906093303 25 0 0.0 0.0 0.00 0.00 0.00 82 1011.2
20260906093203 25 0 0.0 0.0 0.00 0.00 0.00 82 1011.3
20260906093103 25 0 0.0 0.0 0.00 0.00 0.00 82 1011.3
20260906093004 25 0 0.0 0.0 0.00 0.00 0.00 82 1011.2
20260906092803 25 0 0.0 0.0 0.00 0.00 0.00 82 1011.2
20260906092704 25 0 0.0 0.0 0.00 0.00 0.00 82 1011.2
20260906092603 25 0 0.0 0.0 0.00 0.00 0.00 82 1011.2
20260906092504 25 0 0.0 0.0 0.00 0.00 0.00 82 1011.2
20260906092403 25 0 0.0 0.0 0.00 0.00 0.00 83 1011.2
20260906092306 25 0 0.0 0.0 0.00 0.00 0.00 82 1011.2
20260906092203 25 0 0.0 0.0 0.00 0.00 0.00 82 1011.2
20260906092104 25 0 0.0 0.0 0.00 0.00 0.00 82 1011.2
20260906092003 25 0 0.0 0.0 0.00 0.00 0.00 83 1011.2
20260906091904 25 0 0.0 0.0 0.00 0.00 0.00 82 1011.1
20260906091803 25 0 0.0 0.0 0.00 0.00 0.00 83 1011.1
20260906091703 25 0 0.0 0.0 0.00 0.00 0.00 83 1011.1
20260906091603 25 0 0.0 0.0 0.00 0.00 0.00 83 1011.1
20260906091504 25 0 0.0 0.0 0.00 0.00 0.00 83 1011.1
20260906091403 25 0 0.0 0.0 0.00 0.00 0.00 83 1011.2
20260906091303 25 0 0.0 0.0 0.00 0.00 0.00 83 1011.1
20260906091203 25 0 0.0 0.0 0.00 0.00 0.00 83 1011.1
20260906091103 25 0 0.0 0.0 0.00 0.00 0.00 83 1011.1
20260906091004 25 0 0.0 0.0 0.00 0.00 0.00 83 1011.1
20260906090903 25 0 0.0 0.0 0.00 0.00 0.00 83 1011.1
20260906090804 25 0 0.0 0.0 0.00 0.00 0.00 83 1011.1
20260906085004 25 0 0.0 0.0 0.00 0.00 0.00 83 1011.1
20260906084903 25 0 0.0 0.0 0.00 0.00 0.00 83 1011.1
20260906084803 25 0 0.0 0.0 0.00 0.00 0.00 83 1011.1
20260906084003 25 0 0.0 0.0 0.00 0.00 0.00 83 1011.1
20260906083904 25 0 0.0 0.0 0.00 0.00 0.00 83 1011.1
20260906083703 25 0 0.0 0.0 0.00 0.00 0.00 83 1011.1
20260906083203 25 0 0.0 0.0 0.00 0.00 0.00 83 1011.1
20260906083103 25 0 0.0 0.0 0.00 0.00 0.00 83 1011.1
20260906083004 25 0 0.0 0.0 0.00 0.00 0.00 83 1011.1
20260906082903 25 0 0.0 0.0 0.00 0.00 0.00 82 1011.1
20260906082803 25 0 0.0 0.0 0.00 0.00 0.00 82 1011.1
20260906082704 25 0 0.0 0.0 0.00 0.00 0.00 82 1011.1
20260906082604 25 0 0.0 0.0 0.00 0.00 0.00 82 1011.1
20260906082503 25 0 0.0 0.0 0.00 0.00 0.00 82 1011.1
20260906082404 25 0 0.0 0.0 0.00 0.00 0.00 82 1011.1
20260906082306 25 0 0.0 0.0 0.00 0.00 0.00 82 1011.2
20260906082203 25 0 0.0 0.0 0.00 0.00 0.00 82 1011.1
20260906082103 25 0 0.0 0.0 0.00 0.00 0.00 82 1011.2
20260906082004 25 0 0.0 0.0 0.00 0.00 0.00 82 1011.1
20260906081903 25 0 0.0 0.0 0.00 0.00 0.00 82 1011.1
20260906081803 25 0 0.0 0.0 0.00 0.00 0.00 82 1011.1
20260906081703 25 0 0.0 0.0 0.00 0.00 0.00 82 1011.1
20260906081604 25 0 0.0 0.0 0.00 0.00 0.00 82 1011.1
20260906081503 25 0 0.0 0.0 0.00 0.00 0.00 82 1011.1
20260906081403 25 0 0.0 0.0 0.00 0.00 0.00 82 1011.1
20260906081304 25 0 0.0 0.0 0.00 0.00 0.00 82 1011.1
20260906081203 25 0 0.0 0.0 0.00 0.00 0.00 82 1011.2
20260906081103 25 0 0.0 0.0 0.00 0.00 0.00 82 1011.2
20260906081004 25 0 0.0 0.0 0.00 0.00 0.00 82 1011.1
20260906080903 25 0 0.0 0.0 0.00 0.00 0.00 82 1011.1
20260906080803 25 0 0.0 0.0 0.00 0.00 0.00 82 1011.1
20260906080703 25 0 0.0 0.0 0.00 0.00 0.00 82 1011.1
20260906080603 25 0 0.0 0.0 0.00 0.00 0.00 82 1011.1
20260906080504 25 0 0.0 0.0 0.00 0.00 0.00 82 1011.1
20260906080403 25 0 0.0 0.0 0.00 0.00 0.00 82 1011.1
20260906080303 25 0 0.0 0.0 0.00 0.00 0.00 82 1011.1
20260906080203 25 0 0.0 0.0 0.00 0.00 0.00 82 1011.1
20260906080104 25 0 0.0 0.0 0.00 0.00 0.00 82 1011.1
20260906080004 25 0 0.0 0.0 0.00 0.00 0.00 82 1011.1
20260906075903 25 0 0.0 0.0 0.00 0.00 0.00 82 1011.1
20260906075804 25 0 0.0 0.0 0.00 0.00 0.00 82 1011.1
20260906075703 25 0 0.0 0.0 0.00 0.00 0.00 82 1011.1
20260906075203 25 0 0.0 0.0 0.00 0.00 0.00 81 1011.1
20260906075103 25 0 0.0 0.0 0.00 0.00 0.00 81 1011.0
20260906074703 25 0 0.0 0.0 0.00 0.00 0.00 81 1011.1
20260906073704 25 0 0.0 0.0 0.00 0.00 0.00 81 1011.1
20260906073503 25 0 0.0 0.0 0.00 0.00 0.00 81 1011.1
20260906072203 25 0 0.0 0.0 0.00 0.00 0.00 81 1011.2
20260906072004 25 0 0.0 0.0 0.00 0.00 0.00 81 1011.2
20260906071903 25 0 0.0 0.0 0.00 0.00 0.00 81 1011.2
20260906071803 25 0 0.0 0.0 0.00 0.00 0.00 81 1011.2
20260906071704 25 0 0.0 0.0 0.00 0.00 0.00 81 1011.2
20260906071503 25 0 0.0 0.0 0.00 0.00 0.00 80 1011.2
20260906071404 25 0 0.0 0.0 0.00 0.00 0.00 80 1011.2
20260906071304 25 0 0.0 0.0 0.00 0.00 0.00 80 1011.2
20260906071203 25 0 0.0 0.0 0.00 0.00 0.00 80 1011.2
20260906071103 25 0 0.0 0.0 0.00 0.00 0.00 80 1011.2
20260906071004 25 0 0.0 0.0 0.00 0.00 0.00 80 1011.2
20260906070903 25 0 0.0 0.0 0.00 0.00 0.00 80 1011.2
20260906070803 25 0 0.0 0.0 0.00 0.00 0.00 80 1011.2
20260906070703 25 0 0.0 0.0 0.00 0.00 0.00 80 1011.3
20260906070604 25 0 0.0 0.0 0.00 0.00 0.00 80 1011.3
20260906070503 25 0 0.0 0.0 0.00 0.00 0.00 80 1011.3
20260906070404 25 0 0.0 0.0 0.00 0.00 0.00 80 1011.3
20260906070303 25 0 0.0 0.0 0.00 0.00 0.00 80 1011.3
20260906070203 25 0 0.0 0.0 0.00 0.00 0.00 80 1011.3
20260906070104 25 0 0.0 0.0 0.00 0.00 0.00 80 1011.3
20260906070004 25 0 0.0 0.0 0.00 0.00 0.00 80 1011.3
20260906065903 25 0 0.0 0.0 0.00 0.00 0.00 80 1011.3
20260906065803 25 0 0.0 0.0 0.00 0.00 0.00 80 1011.3
20260906065703 25 0 0.0 0.0 0.00 0.00 0.00 80 1011.2
20260906065603 25 0 0.0 0.0 0.00 0.00 0.00 80 1011.2
20260906065504 25 0 0.0 0.0 0.00 0.00 0.00 80 1011.2
20260906065403 25 0 0.0 0.0 0.00 0.00 0.00 80 1011.3
20260906065305 25 0 0.0 0.0 0.00 0.00 0.00 80 1011.3
20260906065204 25 0 0.0 0.0 0.00 0.00 0.00 80 1011.2
20260906065103 25 0 0.0 0.0 0.00 0.00 0.00 80 1011.2
20260906065003 25 0 0.0 0.0 0.00 0.00 0.00 80 1011.3
20260906064904 25 0 0.0 0.0 0.00 0.00 0.00 80 1011.3
20260906064804 25 0 0.0 0.0 0.00 0.00 0.00 80 1011.3
20260906064703 25 0 0.0 0.0 0.00 0.00 0.00 80 1011.3
20260906064603 25 0 0.0 0.0 0.00 0.00 0.00 80 1011.3
20260906064504 25 0 0.0 0.0 0.00 0.00 0.00 80 1011.3
20260906064403 25 0 0.0 0.0 0.00 0.00 0.00 80 1011.3
20260906064303 25 0 0.0 0.0 0.00 0.00 0.00 80 1011.3
20260906064103 25 0 0.0 0.0 0.00 0.00 0.00 80 1011.3
20260906064004 25 0 0.0 0.0 0.00 0.00 0.00 80 1011.3
20260906063903 25 0 0.0 0.0 0.00 0.00 0.00 80 1011.3
20260906063704 25 0 0.0 0.0 0.00 0.00 0.00 80 1011.4
20260906062004 26 0 0.0 0.0 0.00 0.00 0.00 79 1011.5
20260906061104 26 0 0.0 0.0 0.00 0.00 0.00 79 1011.4
20260906060103 26 0 0.0 0.0 0.00 0.00 0.00 79 1011.3
20260906060004 26 0 0.0 0.0 0.00 0.00 0.00 79 1011.4
20260906055903 26 0 0.0 0.0 0.00 0.00 0.00 79 1011.4
20260906055803 26 0 0.0 0.0 0.00 0.00 0.00 79 1011.5
20260906055703 26 0 0.0 0.0 0.00 0.00 0.00 79 1011.5
20260906055604 26 0 0.0 0.0 0.00 0.00 0.00 79 1011.4
20260906055504 26 0 0.0 0.0 0.00 0.00 0.00 79 1011.4
20260906055403 26 0 0.0 0.0 0.00 0.00 0.00 79 1011.4
20260906055306 26 0 0.0 0.0 0.00 0.00 0.00 78 1011.4
20260906055204 26 0 0.0 0.0 0.00 0.00 0.00 78 1011.4
20260906055103 26 0 0.0 0.0 0.00 0.00 0.00 78 1011.4
20260906055004 26 0 0.0 0.0 0.00 0.00 0.00 78 1011.4
20260906054904 26 0 0.0 0.0 0.00 0.00 0.00 78 1011.4
20260906054803 26 0 0.0 0.0 0.00 0.00 0.00 78 1011.4
20260906054703 26 0 0.0 0.0 0.00 0.00 0.00 78 1011.4
20260906054603 26 0 0.0 0.0 0.00 0.00 0.00 78 1011.4
20260906054504 26 0 0.0 0.0 0.00 0.00 0.00 78 1011.4
20260906054403 26 0 0.0 0.0 0.00 0.00 0.00 78 1011.4
20260906054303 26 0 0.0 0.0 0.00 0.00 0.00 78 1011.4
20260906054203 26 0 0.0 0.0 0.00 0.00 0.00 78 1011.4
20260906054104 26 0 0.0 0.0 0.00 0.00 0.00 78 1011.4
20260906054003 26 0 0.0 0.0 0.00 0.00 0.00 78 1011.4
20260906053903 26 0 0.0 0.0 0.00 0.00 0.00 78 1011.4
20260906053804 26 0 0.0 0.0 0.00 0.00 0.00 78 1011.4
20260906053704 26 0 0.0 0.0 0.00 0.00 0.00 78 1011.4
20260906053603 26 0 0.0 0.0 0.00 0.00 0.00 78 1011.4
20260906053504 26 0 0.0 0.0 0.00 0.00 0.00 78 1011.4
20260906053404 26 0 0.0 0.0 0.00 0.00 0.00 78 1011.4
20260906053303 26 0 0.0 0.0 0.00 0.00 0.00 78 1011.4
20260906053203 26 0 0.0 0.0 0.00 0.00 0.00 78 1011.4
20260906053103 26 0 0.0 0.0 0.00 0.00 0.00 78 1011.3
20260906053004 26 0 0.0 0.0 0.00 0.00 0.00 78 1011.3
20260906052903 26 0 0.0 0.0 0.00 0.00 0.00 78 1011.3
20260906052803 26 0 0.0 0.0 0.00 0.00 0.00 78 1011.3
20260906052703 26 0 0.0 0.0 0.00 0.00 0.00 78 1011.3
20260906052604 26 0 0.0 0.0 0.00 0.00 0.00 77 1011.3
20260906052504 26 0 0.0 0.0 0.00 0.00 0.00 77 1011.3
20260906052403 26 0 0.0 0.0 0.00 0.00 0.00 77 1011.3
20260906052305 26 0 0.0 0.0 0.00 0.00 0.00 77 1011.3
20260906050303 26 0 0.0 0.0 0.00 0.00 0.00 77 1011.2
20260906050204 26 0 0.0 0.0 0.00 0.00 0.00 77 1011.2
20260906050005 26 0 0.0 0.0 0.00 0.00 0.00 77 1011.2
20260906044904 26 0 0.0 0.0 0.00 0.00 0.00 76 1011.2
20260906044803 26 0 0.0 0.0 0.00 0.00 0.00 76 1011.2
20260906044703 26 0 0.0 0.0 0.00 0.00 0.00 76 1011.2
20260906044603 26 0 0.0 0.0 0.00 0.00 0.00 76 1011.2
20260906044504 26 0 0.0 0.0 0.00 0.00 0.00 76 1011.2
20260906044403 26 0 0.0 0.0 0.00 0.00 0.00 76 1011.2
20260906044303 26 0 0.0 0.0 0.00 0.00 0.00 76 1011.2
20260906044203 26 0 0.0 0.0 0.00 0.00 0.00 76 1011.2
20260906044104 26 0 0.0 0.0 0.00 0.00 0.00 76 1011.2
20260906044004 26 0 0.0 0.0 0.00 0.00 0.00 76 1011.2
20260906043903 26 0 0.0 0.0 0.00 0.00 0.00 76 1011.1
20260906043804 26 0 0.0 0.0 0.00 0.00 0.00 76 1011.1
20260906043704 26 0 0.0 0.0 0.00 0.00 0.00 76 1011.1
20260906043603 26 0 0.0 0.0 0.00 0.00 0.00 76 1011.1
20260906043504 26 0 0.0 0.0 0.00 0.00 0.00 76 1011.0
20260906043403 26 0 0.0 0.0 0.00 0.00 0.00 75 1011.1
20260906043303 26 0 0.0 0.0 0.00 0.00 0.00 75 1011.1
20260906043203 26 0 0.0 0.0 0.00 0.00 0.00 75 1011.1
20260906043103 26 0 0.0 0.0 0.00 0.00 0.00 75 1011.1
20260906043004 26 0 0.0 0.0 0.00 0.00 0.00 75 1011.1
20260906042903 26 0 0.0 0.0 0.00 0.00 0.00 75 1011.1
20260906042803 26 0 0.0 0.0 0.00 0.00 0.00 75 1011.1
20260906042703 26 0 0.0 0.0 0.00 0.00 0.00 75 1011.1
20260906042604 26 0 0.0 0.0 0.00 0.00 0.00 76 1011.1
20260906042503 26 0 0.0 0.0 0.00 0.00 0.00 75 1011.1
20260906042403 26 0 0.0 0.0 0.00 0.00 0.00 75 1011.1
20260906042306 26 0 0.0 0.0 0.00 0.00 0.00 75 1011.2
20260906042204 26 0 0.0 0.0 0.00 0.00 0.00 75 1011.2
20260906042103 26 0 0.0 0.0 0.00 0.00 0.00 75 1011.1
20260906042004 26 0 0.0 0.0 0.00 0.00 0.00 75 1011.2
20260906041904 26 0 0.0 0.0 0.00 0.00 0.00 75 1011.2
20260906041803 26 0 0.0 0.0 0.00 0.00 0.00 75 1011.1
20260906041703 26 0 0.0 0.0 0.00 0.00 0.00 75 1011.1
20260906041603 26 0 0.0 0.0 0.00 0.00 0.00 75 1011.2
20260906041504 26 0 0.0 0.0 0.00 0.00 0.00 75 1011.2
20260906041403 26 0 0.0 0.0 0.00 0.00 0.00 75 1011.2
20260906041303 26 0 0.0 0.0 0.00 0.00 0.00 75 1011.2
20260906041203 26 0 0.0 0.0 0.00 0.00 0.00 75 1011.2
20260906041103 26 0 0.0 0.0 0.00 0.00 0.00 75 1011.1
20260906040104 27 0 0.0 0.0 0.00 0.00 0.00 74 1011.1
20260906034603 27 0 0.0 0.0 0.00 0.00 0.00 73 1011.1
20260906033704 27 0 0.0 0.0 0.00 0.00 0.00 73 1011.2
20260906033604 27 0 0.0 0.0 0.00 0.00 0.00 74 1011.2
20260906033503 27 0 0.0 0.0 0.00 0.00 0.00 74 1011.2
20260906033404 27 0 0.0 0.0 0.00 0.00 0.00 73 1011.2
20260906033304 27 0 0.0 0.0 0.00 0.00 0.00 73 1011.2
20260906033203 27 0 0.0 0.0 0.00 0.00 0.00 73 1011.2
20260906033103 27 0 0.0 0.0 0.00 0.00 0.00 73 1011.3
20260906033004 27 0 0.0 0.0 0.00 0.00 0.00 73 1011.3
20260906032903 27 0 0.0 0.0 0.00 0.00 0.00 73 1011.3
20260906032803 27 0 0.0 0.0 0.00 0.00 0.00 73 1011.3
20260906032703 27 0 0.0 0.0 0.00 0.00 0.00 73 1011.3
20260906032603 27 0 0.0 0.0 0.00 0.00 0.00 73 1011.3
20260906032504 27 0 0.0 0.0 0.00 0.00 0.00 73 1011.3
20260906032403 27 0 0.0 0.0 0.00 0.00 0.00 73 1011.3
20260906032306 27 0 0.0 0.0 0.00 0.00 0.00 73 1011.3
20260906032203 27 0 0.0 0.0 0.00 0.00 0.00 73 1011.3
20260906032104 27 0 0.0 0.0 0.00 0.00 0.00 73 1011.3
20260906032003 27 0 0.0 0.0 0.00 0.00 0.00 73 1011.4
20260906031904 27 0 0.0 0.0 0.00 0.00 0.00 73 1011.4
20260906031804 27 0 0.0 0.0 0.00 0.00 0.00 73 1011.4
20260906031703 27 0 0.0 0.0 0.00 0.00 0.00 73 1011.4
20260906031603 27 0 0.0 0.0 0.00 0.00 0.00 73 1011.4
20260906031504 27 0 0.0 0.0 0.00 0.00 0.00 73 1011.5
20260906031403 27 0 0.0 0.0 0.00 0.00 0.00 72 1011.5
20260906031303 27 0 0.0 0.0 0.00 0.00 0.00 72 1011.5
20260906031203 27 0 0.0 0.0 0.00 0.00 0.00 72 1011.5
20260906031103 27 0 0.0 0.0 0.00 0.00 0.00 72 1011.4
20260906031004 27 0 0.0 0.0 0.00 0.00 0.00 72 1011.4
20260906030903 27 0 0.0 0.0 0.00 0.00 0.00 72 1011.4
20260906030803 27 0 0.0 0.0 0.00 0.00 0.00 72 1011.4
20260906030703 27 0 0.0 0.0 0.00 0.00 0.00 72 1011.5
20260906030104 28 0 0.0 0.0 0.00 0.00 0.00 72 1011.4
20260906030004 28 0 0.0 0.0 0.00 0.00 0.00 72 1011.4
20260906025904 28 0 0.0 0.0 0.00 0.00 0.00 72 1011.4
20260906025803 28 0 0.0 0.0 0.00 0.00 0.00 71 1011.4
20260906025703 28 0 0.0 0.0 0.00 0.00 0.00 71 1011.3
20260906025603 28 0 0.0 0.0 0.00 0.00 0.00 71 1011.4
20260906025403 28 0 0.0 0.0 0.00 0.00 0.00 71 1011.3
20260906025306 28 0 0.0 0.0 0.00 0.00 0.00 71 1011.4
20260906025203 28 0 0.0 0.0 0.00 0.00 0.00 71 1011.4
20260906025103 28 0 0.0 0.0 0.00 0.00 0.00 71 1011.4
20260906023203 28 0 0.0 0.0 0.00 0.00 0.00 70 1011.1
20260906023004 28 0 0.0 0.0 0.00 0.00 0.00 69 1011.1
20260906022803 28 0 0.0 0.0 0.00 0.00 0.00 69 1011.0
20260906022703 28 0 0.0 0.0 0.00 0.00 0.00 69 1011.0
20260906022603 28 0 0.0 0.0 0.00 0.00 0.00 69 1011.0
20260906022504 28 0 0.0 0.0 0.00 0.00 0.00 69 1011.0
20260906022403 28 0 0.0 0.0 0.00 0.00 0.00 69 1011.0
20260906022306 28 0 0.0 0.0 0.00 0.00 0.00 69 1011.0
20260906022204 28 0 0.0 0.0 0.00 0.00 0.00 69 1011.0
20260906022104 28 0 0.0 0.0 0.00 0.00 0.00 69 1011.0
20260906022003 28 0 0.0 0.0 0.00 0.00 0.00 69 1010.9
20260906021904 28 0 0.0 0.0 0.00 0.00 0.00 69 1011.0
20260906021803 28 0 0.0 0.0 0.00 0.00 0.00 69 1011.0
20260906021703 28 0 0.0 0.0 0.00 0.00 0.00 69 1010.9
20260906021603 28 0 0.0 0.0 0.00 0.00 0.00 69 1010.9
20260906021504 28 0 0.0 0.0 0.00 0.00 0.00 69 1010.9
20260906021403 28 0 0.0 0.0 0.00 0.00 0.00 69 1010.9
20260906021303 28 0 0.0 0.0 0.00 0.00 0.00 68 1010.8
20260906021203 29 0 0.0 0.0 0.00 0.00 0.00 68 1010.8
20260906021104 29 0 0.0 0.0 0.00 0.00 0.00 68 1010.8
20260906021004 29 0 0.0 0.0 0.00 0.00 0.00 68 1010.7
20260906020903 29 0 0.0 0.0 0.00 0.00 0.00 68 1010.7
20260906020804 29 0 0.0 0.0 0.00 0.00 0.00 68 1010.7
20260906020704 29 0 0.0 0.0 0.00 0.00 0.00 68 1010.7
20260906020603 29 0 0.0 0.0 0.00 0.00 0.00 68 1010.7
20260906020504 29 0 0.0 0.0 0.00 0.00 0.00 68 1010.7
20260906020404 29 0 0.0 0.0 0.00 0.00 0.00 68 1010.7
20260906020303 29 0 0.0 0.0 0.00 0.00 0.00 68 1010.7
20260906020203 29 0 0.0 0.0 0.00 0.00 0.00 68 1010.6
20260906020004 29 0 0.0 0.0 0.00 0.00 0.00 67 1010.5
20260906015903 29 0 0.0 0.0 0.00 0.00 0.00 67 1010.5
20260906015803 29 0 0.0 0.0 0.00 0.00 0.00 67 1010.5
20260906015703 29 0 0.0 0.0 0.00 0.00 0.00 67 1010.4
20260906015604 29 0 0.0 0.0 0.00 0.00 0.00 67 1010.5
20260906015306 30 0 0.0 0.0 0.00 0.00 0.00 66 1010.4
20260906012804 30 0 0.0 0.0 0.00 0.00 0.00 64 1010.1
20260906012103 30 0 0.0 0.0 0.00 0.00 0.00 63 1010.1
20260906012004 30 0 0.0 0.0 0.00 0.00 0.00 63 1010.1
20260906011903 30 0 0.0 0.0 0.00 0.00 0.00 63 1010.1
20260906011803 30 0 0.0 0.0 0.00 0.00 0.00 63 1010.1
20260906011703 31 0 0.0 0.0 0.00 0.00 0.00 63 1010.0
20260906011603 31 0 0.0 0.0 0.00 0.00 0.00 63 1010.0
20260906011504 31 0 0.0 0.0 0.00 0.00 0.00 62 1010.0
20260906011403 31 0 0.0 0.0 0.00 0.00 0.00 62 1010.1
20260906011303 31 0 0.0 0.0 0.00 0.00 0.00 62 1010.0
20260906011204 31 0 0.0 0.0 0.00 0.00 0.00 62 1010.0
20260906011104 31 0 0.0 0.0 0.00 0.00 0.00 62 1010.0
20260906011003 31 0 0.0 0.0 0.00 0.00 0.00 62 1009.9
20260906010904 31 0 0.0 0.0 0.00 0.00 0.00 62 1009.9
20260906010804 31 0 0.0 0.0 0.00 0.00 0.00 61 1009.9
20260906010703 31 0 0.0 0.0 0.00 0.00 0.00 61 1009.9
20260906010603 31 0 0.0 0.0 0.00 0.00 0.00 61 1009.9
20260906010504 31 0 0.0 0.0 0.00 0.00 0.00 61 1009.9
20260906010403 31 0 0.0 0.0 0.00 0.00 0.00 61 1009.9
20260906010303 31 0 0.0 0.0 0.00 0.00 0.00 61 1009.9
20260906010203 31 0 0.0 0.0 0.00 0.00 0.00 60 1009.8
20260906010004 31 0 0.0 0.0 0.00 0.00 0.00 60 1009.8
20260906005903 31 0 0.0 0.0 0.00 0.00 0.00 60 1009.8
20260906005804 31 0 0.0 0.0 0.00 0.00 0.00 60 1009.8
20260906005704 31 0 0.0 0.0 0.00 0.00 0.00 60 1009.8
20260906005603 31 0 0.0 0.0 0.00 0.00 0.00 59 1009.8
20260906005503 31 0 0.0 0.0 0.00 0.00 0.00 59 1009.8
20260906005404 32 0 0.0 0.0 0.00 0.00 0.00 59 1009.9
20260906005306 32 0 0.0 0.0 0.00 0.00 0.00 59 1009.8
20260906005203 32 0 0.0 0.0 0.00 0.00 0.00 59 1009.9
20260906005103 32 0 0.0 0.0 0.00 0.00 0.00 59 1009.8
20260906005004 32 0 0.0 0.0 0.00 0.00 0.00 58 1009.8
20260906004903 32 0 0.0 0.0 0.00 0.00 0.00 58 1009.9
20260906004803 32 0 0.0 0.0 0.00 0.00 0.00 58 1009.9
20260906004703 32 0 0.0 0.0 0.00 0.00 0.00 58 1009.8
20260906004604 32 0 0.0 0.0 0.00 0.00 0.00 58 1009.8
20260906004504 32 0 0.0 0.0 0.00 0.00 0.00 57 1009.8
20260906003304 33 0 0.0 0.0 0.00 0.00 0.00 56 1009.8
20260906000503 35 0 0.0 0.0 0.00 0.00 0.00 50 1009.9
20260906000403 35 0 0.0 0.0 0.00 0.00 0.00 50 1009.9
20260906000304 35 0 0.0 0.0 0.00 0.00 0.00 50 1009.9
20260906000204 35 0 0.0 0.0 0.00 0.00 0.00 50 1010.0
20260906000103 35 0 0.0 0.0 0.00 0.00 0.00 50 1010.0
20260906000004 35 0 0.0 0.0 0.00 0.00 0.00 50 1010.0
20260905235903 35 0 0.0 0.0 0.00 0.00 0.00 50 1010.0
20260905235803 35 0 0.0 0.0 0.00 0.00 0.00 50 1010.1
20260905235703 35 0 0.0 0.0 0.00 0.00 0.00 50 1010.0
20260905235603 35 0 0.0 0.0 0.00 0.00 0.00 49 1010.0
20260905235504 35 0 0.0 0.0 0.00 0.00 0.00 49 1010.0
20260905235403 35 0 0.0 0.0 0.00 0.00 0.00 50 1010.0
20260905235306 35 0 0.0 0.0 0.00 0.00 0.00 49 1010.0
20260905235203 35 0 0.0 0.0 0.00 0.00 0.00 48 1010.1
20260905235104 35 0 0.0 0.0 0.00 0.00 0.00 49 1010.0
20260905235003 35 0 0.0 0.0 0.00 0.00 0.00 48 1010.0
20260905234903 35 0 0.0 0.0 0.00 0.00 0.00 49 1010.0
20260905234804 35 0 0.0 0.0 0.00 0.00 0.00 49 1010.0
20260905234703 35 0 0.0 0.0 0.00 0.00 0.00 49 1010.0
20260905234603 36 0 0.0 0.0 0.00 0.00 0.00 47 1010.0
20260905234504 36 314 0.0 1.6 0.00 0.00 0.00 48 1010.0
20260905234403 36 314 0.0 1.6 0.00 0.00 0.00 49 1010.0
20260905234303 36 314 0.0 1.6 0.00 0.00 0.00 48 1010.0
20260905234203 36 316 0.0 3.2 0.00 0.00 0.00 48 1009.9
20260905234103 36 316 0.0 3.2 0.00 0.00 0.00 48 1010.0
20260905234004 36 320 0.0 3.2 0.00 0.00 0.00 47 1010.0
20260905233903 36 323 0.0 3.2 0.00 0.00 0.00 47 1009.9
20260905233804 36 323 0.0 3.2 0.00 0.00 0.00 47 1009.9
20260905233704 36 323 0.0 3.2 0.00 0.00 0.00 47 1009.9
20260905233603 36 323 0.0 3.2 0.00 0.00 0.00 47 1010.0
20260905233504 36 324 0.0 3.2 0.00 0.00 0.00 47 1009.9
20260905233404 36 325 0.0 3.2 0.00 0.00 0.00 47 1009.9
20260905233303 36 327 0.0 3.2 0.00 0.00 0.00 46 1009.9
20260905233203 36 358 0.0 1.6 0.00 0.00 0.00 47 1009.9
20260905233103 36 358 0.0 1.6 0.00 0.00 0.00 47 1009.9
20260905233004 36 355 0.0 1.6 0.00 0.00 0.00 46 1009.9
20260905232903 36 0 0.0 0.0 0.00 0.00 0.00 48 1009.8
20260905232803 36 0 0.0 0.0 0.00 0.00 0.00 46 1009.9
20260905232704 36 0 0.0 0.0 0.00 0.00 0.00 46 1009.9
20260905232604 36 0 0.0 0.0 0.00 0.00 0.00 47 1009.9
20260905232503 36 0 0.0 0.0 0.00 0.00 0.00 47 1009.9
20260905232403 36 0 0.0 0.0 0.00 0.00 0.00 45 1009.9
20260905232306 36 324 0.0 4.8 0.00 0.00 0.00 45 1009.9
20260905232203 36 303 0.0 4.8 0.00 0.00 0.00 45 1009.9
20260905232103 36 301 0.0 4.8 0.00 0.00 0.00 45 1009.9
20260905232004 36 304 0.0 4.8 0.00 0.00 0.00 45 1009.8
20260905231903 36 304 0.0 4.8 0.00 0.00 0.00 45 1009.8
20260905231803 36 304 1.6 4.8 0.00 0.00 0.00 45 1009.8
20260905231703 36 304 1.6 4.8 0.00 0.00 0.00 46 1009.9
20260905231603 36 304 1.6 4.8 0.00 0.00 0.00 46 1009.9
20260905231504 36 304 1.6 4.8 0.00 0.00 0.00 47 1009.9
20260905231403 36 304 1.6 4.8 0.00 0.00 0.00 44 1009.9
20260905231304 36 298 0.0 4.8 0.00 0.00 0.00 45 1009.9
20260905231204 36 302 0.0 4.8 0.00 0.00 0.00 46 1009.8
20260905231103 36 303 0.0 4.8 0.00 0.00 0.00 45 1009.8
20260905231004 37 299 0.0 4.8 0.00 0.00 0.00 48 1009.9
20260905230903 37 298 0.0 4.8 0.00 0.00 0.00 44 1009.9
20260905230803 37 292 0.0 1.6 0.00 0.00 0.00 46 1009.9
20260905230703 37 291 0.0 1.6 0.00 0.00 0.00 47 1009.9
20260905230603 37 290 0.0 3.2 0.00 0.00 0.00 46 1009.9
20260905230504 37 289 0.0 3.2 0.00 0.00 0.00 45 1009.9
20260905230403 37 289 0.0 3.2 0.00 0.00 0.00 45 1010.0
20260905230303 37 288 0.0 3.2 0.00 0.00 0.00 45 1010.0
20260905230204 37 288 0.0 3.2 0.00 0.00 0.00 44 1010.0
20260905230103 37 287 0.0 3.2 0.00 0.00 0.00 45 1010.0
20260905230003 37 287 0.0 3.2 0.00 0.00 0.00 46 1010.0
20260905225904 37 287 0.0 3.2 0.00 0.00 0.00 46 1009.9
20260905225803 37 287 0.0 3.2 0.00 0.00 0.00 46 1009.9
20260905225703 37 287 0.0 3.2 0.00 0.00 0.00 45 1009.9
20260905225603 37 288 0.0 3.2 0.00 0.00 0.00 44 1009.9
20260905225504 37 288 0.0 3.2 0.00 0.00 0.00 44 1009.9
20260905225403 37 288 0.0 3.2 0.00 0.00 0.00 46 1009.9
20260905225305 37 288 0.0 3.2 0.00 0.00 0.00 46 1009.9
20260905225203 37 288 0.0 1.6 0.00 0.00 0.00 45 1009.9
20260905225104 37 288 0.0 1.6 0.00 0.00 0.00 45 1009.9
20260905225003 37 288 0.0 1.6 0.00 0.00 0.00 45 1009.9
20260905224904 37 288 0.0 1.6 0.00 0.00 0.00 45 1009.9
20260905224703 37 288 0.0 1.6 0.00 0.00 0.00 44 1009.9
20260905224603 37 287 0.0 3.2 0.00 0.00 0.00 43 1009.9
20260905224504 38 287 0.0 3.2 0.00 0.00 0.00 44 1009.9
20260905224403 38 287 0.0 3.2 0.00 0.00 0.00 43 1009.9
20260905224303 38 287 0.0 3.2 0.00 0.00 0.00 42 1009.9
20260905224203 38 287 0.0 3.2 0.00 0.00 0.00 44 1009.9
20260905224103 38 287 0.0 3.2 0.00 0.00 0.00 43 1009.9
20260905224004 38 287 0.0 3.2 0.00 0.00 0.00 43 1009.9
20260905223903 38 287 0.0 3.2 0.00 0.00 0.00 43 1010.0
20260905223804 38 287 0.0 3.2 0.00 0.00 0.00 43 1009.9
20260905223704 38 280 0.0 3.2 0.00 0.00 0.00 41 1009.9
20260905223603 38 274 0.0 1.6 0.00 0.00 0.00 45 1010.0
20260905223504 38 274 0.0 1.6 0.00 0.00 0.00 44 1009.9
20260905223404 38 274 0.0 1.6 0.00 0.00 0.00 43 1009.8
20260905223303 38 274 0.0 1.6 0.00 0.00 0.00 40 1009.9
20260905223203 38 274 0.0 1.6 0.00 0.00 0.00 42 1009.9
20260905223103 38 274 0.0 1.6 0.00 0.00 0.00 42 1009.8
20260905223004 38 270 0.0 1.6 0.00 0.00 0.00 42 1009.9
20260905222903 39 270 0.0 1.6 0.00 0.00 0.00 43 1009.9
20260905222803 39 270 0.0 1.6 0.00 0.00 0.00 42 1009.9
20260905222704 39 0 0.0 0.0 0.00 0.00 0.00 43 1009.9
20260905222604 39 0 0.0 0.0 0.00 0.00 0.00 41 1009.8
20260905222503 39 0 0.0 0.0 0.00 0.00 0.00 41 1009.8
20260905222404 40 0 0.0 0.0 0.00 0.00 0.00 41 1009.8
20260905222306 40 0 0.0 0.0 0.00 0.00 0.00 40 1009.8
20260905222203 40 0 0.0 0.0 0.00 0.00 0.00 40 1009.9
20260905222103 40 0 0.0 0.0 0.00 0.00 0.00 40 1009.8
20260905222004 40 0 0.0 0.0 0.00 0.00 0.00 41 1009.9
20260905221903 40 0 0.0 0.0 0.00 0.00 0.00 41 1009.9
20260905221803 40 0 0.0 0.0 0.00 0.00 0.00 41 1009.9
20260905221703 40 0 0.0 0.0 0.00 0.00 0.00 40 1009.9
20260905221603 40 270 0.0 1.6 0.00 0.00 0.00 41 1009.9
20260905221504 40 270 0.0 1.6 0.00 0.00 0.00 41 1009.9
20260905221403 40 270 0.0 1.6 0.00 0.00 0.00 40 1010.0
20260905221303 40 256 0.0 1.6 0.00 0.00 0.00 40 1009.9
20260905221204 40 256 0.0 1.6 0.00 0.00 0.00 39 1010.0
20260905220504 40 273 0.0 1.6 0.00 0.00 0.00 39 1010.1
20260905220403 40 278 0.0 1.6 0.00 0.00 0.00 38 1010.0
20260905214504 40 310 1.6 8.0 0.00 0.00 0.00 38 1009.9
20260905214303 40 301 1.6 8.0 0.00 0.00 0.00 40 1009.9
20260905214004 40 288 1.6 6.4 0.00 0.00 0.00 40 1009.9
20260905213203 40 298 0.0 4.8 0.00 0.00 0.00 39 1010.0
20260905213103 40 302 1.6 4.8 0.00 0.00 0.00 39 1010.0
20260905213004 40 298 1.6 4.8 0.00 0.00 0.00 39 1010.0
20260905212903 40 298 1.6 4.8 0.00 0.00 0.00 39 1010.0
20260905212803 40 299 1.6 4.8 0.00 0.00 0.00 38 1009.9
20260905212703 40 301 1.6 4.8 0.00 0.00 0.00 39 1010.0
20260905212604 40 307 1.6 4.8 0.00 0.00 0.00 40 1010.0
20260905212504 40 311 1.6 4.8 0.00 0.00 0.00 39 1010.0
20260905212403 40 313 1.6 4.8 0.00 0.00 0.00 38 1010.0
20260905212306 40 319 1.6 4.8 0.00 0.00 0.00 38 1010.0
20260905212204 40 321 1.6 4.8 0.00 0.00 0.00 38 1010.0
20260905212103 40 324 1.6 4.8 0.00 0.00 0.00 39 1010.0
20260905212004 40 326 1.6 4.8 0.00 0.00 0.00 39 1010.0
20260905211903 40 328 1.6 4.8 0.00 0.00 0.00 41 1010.0
20260905211803 40 319 1.6 4.8 0.00 0.00 0.00 40 1010.0
20260905211704 40 318 1.6 6.4 0.00 0.00 0.00 40 1010.1
20260905211603 40 313 1.6 6.4 0.00 0.00 0.00 39 1010.1
20260905211503 40 308 1.6 6.4 0.00 0.00 0.00 41 1010.1
20260905211404 40 307 0.0 6.4 0.00 0.00 0.00 40 1010.1
20260905211303 40 306 0.0 6.4 0.00 0.00 0.00 40 1010.1
20260905211203 40 293 0.0 6.4 0.00 0.00 0.00 42 1010.1
20260905211104 40 303 0.0 6.4 0.00 0.00 0.00 41 1010.1
20260905211003 40 312 0.0 6.4 0.00 0.00 0.00 40 1010.1
20260905210904 40 313 0.0 6.4 0.00 0.00 0.00 40 1010.2
20260905210803 40 322 0.0 6.4 0.00 0.00 0.00 41 1010.2
20260905210703 40 308 0.0 4.8 0.00 0.00 0.00 40 1010.2
20260905210603 39 297 1.6 4.8 0.00 0.00 0.00 42 1010.2
20260905210504 39 306 1.6 4.8 0.00 0.00 0.00 42 1010.2
20260905210403 39 307 1.6 4.8 0.00 0.00 0.00 42 1010.2
20260905210303 39 307 1.6 4.8 0.00 0.00 0.00 40 1010.2
20260905210204 39 307 1.6 4.8 0.00 0.00 0.00 41 1010.2
20260905210104 39 303 1.6 4.8 0.00 0.00 0.00 42 1010.2
20260905210003 38 300 1.6 4.8 0.00 0.00 0.00 42 1010.2
20260905205904 38 299 1.6 4.8 0.00 0.00 0.00 42 1010.2
20260905205803 38 298 1.6 4.8 0.00 0.00 0.00 42 1010.2
20260905205703 38 306 1.6 4.8 0.00 0.00 0.00 42 1010.2
20260905205603 38 314 1.6 4.8 0.00 0.00 0.00 41 1010.2
20260905205504 38 306 0.0 4.8 0.00 0.00 0.00 44 1010.2
20260905201903 38 263 0.0 3.2 0.00 0.03 0.00 42 1011.0
20260905201703 38 254 0.0 3.2 0.00 0.03 0.00 42 1011.0
20260905201603 38 254 0.0 3.2 0.00 0.03 0.00 41 1011.0
20260905201504 38 252 0.0 3.2 0.00 0.03 0.00 42 1011.0
20260905201403 38 248 0.0 3.2 0.00 0.03 0.00 41 1011.0
20260905201304 38 246 0.0 3.2 0.00 0.03 0.00 43 1011.0
20260905201204 38 239 0.0 3.2 0.00 0.03 0.00 43 1011.0
20260905201103 38 237 0.0 3.2 0.00 0.03 0.00 43 1011.0
20260905201004 38 235 0.0 3.2 0.00 0.03 0.00 44 1011.0
20260905200904 38 233 0.0 3.2 0.00 0.03 0.00 43 1011.1
20260905200803 38 231 0.0 4.8 0.00 0.03 0.00 43 1011.1
20260905200703 38 230 1.6 4.8 0.00 0.03 0.00 43 1011.1
20260905200603 38 230 1.6 4.8 0.00 0.03 0.00 44 1011.1
20260905200504 38 231 1.6 4.8 0.00 0.03 0.00 44 1011.1
20260905200403 38 231 1.6 4.8 0.00 0.03 0.00 43 1011.1
20260905200303 38 232 1.6 4.8 0.00 0.03 0.00 43 1011.1
20260905200204 38 233 1.6 4.8 0.00 0.03 0.00 43 1011.1
20260905200104 38 236 1.6 4.8 0.00 0.03 0.00 43 1011.1
20260905200003 39 237 1.6 4.8 0.00 0.03 0.00 43 1011.1
20260905195904 39 236 1.6 4.8 0.00 0.03 0.00 42 1011.2
20260905195803 39 232 1.6 4.8 0.00 0.03 0.00 40 1011.1
20260905195703 40 227 1.6 4.8 0.00 0.03 0.00 40 1011.2
20260905195603 40 230 1.6 4.8 0.00 0.03 0.00 40 1011.2
20260905195504 40 229 1.6 4.8 0.00 0.03 0.00 39 1011.3
20260905195403 40 227 1.6 4.8 0.00 0.03 0.00 40 1011.3
20260905195306 40 218 1.6 8.0 0.00 0.03 0.00 39 1011.3
20260905195203 40 217 1.6 8.0 0.00 0.03 0.00 39 1011.3
20260905195104 40 214 1.6 8.0 0.00 0.05 0.00 39 1011.3
20260905195004 40 213 1.6 8.0 0.00 0.05 0.00 39 1011.3
20260905194903 40 216 1.6 8.0 0.00 0.05 0.00 39 1011.3
20260905194804 40 218 1.6 8.0 0.00 0.05 0.00 39 1011.3
20260905194703 40 227 1.6 8.0 0.00 0.05 0.00 40 1011.3
20260905194504 40 225 1.6 8.0 0.00 0.05 0.00 39 1011.4
20260905194103 39 239 1.6 6.4 0.00 0.10 0.00 40 1011.5
20260905193804 39 230 1.6 6.4 0.00 0.10 0.00 40 1011.4
20260905193603 39 222 1.6 6.4 0.00 0.10 0.00 40 1011.4
20260905193303 39 223 1.6 6.4 0.00 0.10 0.00 40 1011.5
20260905192803 39 233 1.6 6.4 0.00 0.10 0.00 40 1011.6
20260905192604 39 241 1.6 4.8 0.00 0.10 0.00 40 1011.6
20260905190703 38 241 0.0 4.8 0.00 0.10 0.00 41 1012.1
20260905190603 38 237 0.0 4.8 0.00 0.10 0.00 42 1012.0
20260905190504 38 232 1.6 4.8 0.00 0.10 0.00 42 1012.0
20260905190403 38 224 1.6 6.4 0.00 0.10 0.00 41 1012.0
20260905190303 38 223 1.6 6.4 0.00 0.10 0.00 41 1012.0
20260905190204 38 222 1.6 6.4 0.00 0.10 0.00 42 1012.0
20260905190103 38 216 1.6 6.4 0.00 0.10 0.00 41 1012.0
20260905190003 38 217 1.6 6.4 0.00 0.10 0.00 42 1012.1
20260905185904 38 217 1.6 6.4 0.00 0.10 0.00 41 1012.1
20260905185803 38 218 1.6 6.4 0.00 0.10 0.00 41 1012.1
20260905185703 38 219 1.6 6.4 0.00 0.10 0.00 41 1012.1
20260905185603 38 221 1.6 6.4 0.00 0.10 0.00 41 1012.1
20260905185504 38 220 1.6 6.4 0.00 0.10 0.00 41 1012.1
20260905185403 38 224 1.6 6.4 0.00 0.10 0.00 41 1012.1
20260905185305 38 224 1.6 6.4 0.00 0.10 0.00 41 1012.1
20260905185203 38 225 1.6 6.4 0.00 0.10 0.00 42 1012.1
20260905185104 37 229 1.6 4.8 0.00 0.10 0.00 41 1012.1
20260905185003 37 231 1.6 4.8 0.00 0.10 0.00 42 1012.1
20260905184904 37 232 1.6 4.8 0.00 0.10 0.00 42 1012.2
20260905184803 37 236 1.6 4.8 0.00 0.10 0.00 41 1012.2
20260905184703 37 237 1.6 4.8 0.00 0.10 0.00 41 1012.2
20260905184603 37 237 1.6 4.8 0.00 0.10 0.00 41 1012.2
20260905184504 38 237 1.6 4.8 0.00 0.10 0.00 41 1012.2
20260905184403 38 240 1.6 4.8 0.00 0.10 0.00 40 1012.2
20260905184303 38 239 1.6 6.4 0.00 0.10 0.00 40 1012.3
20260905184203 38 238 1.6 6.4 0.00 0.10 0.00 40 1012.3
20260905184104 38 239 1.6 6.4 0.00 0.10 0.00 40 1012.3
20260905184004 38 238 1.6 6.4 0.00 0.10 0.00 41 1012.3
20260905183903 38 237 1.6 6.4 0.00 0.10 0.00 40 1012.3
20260905183804 38 237 1.6 6.4 0.00 0.10 0.00 40 1012.3
20260905183703 38 236 1.6 6.4 0.00 0.10 0.00 41 1012.4
20260905183603 38 236 1.6 6.4 0.00 0.10 0.00 40 1012.4
20260905183504 38 233 1.6 6.4 0.00 0.10 0.00 42 1012.3
20260905183403 38 226 1.6 6.4 0.00 0.10 0.00 40 1012.3
20260905183303 38 225 1.6 4.8 0.00 0.10 0.00 41 1012.3
20260905183204 37 225 1.6 4.8 0.00 0.10 0.00 42 1012.4
20260905183103 37 224 1.6 4.8 0.00 0.10 0.00 42 1012.4
20260905183004 37 221 0.0 4.8 0.00 0.10 0.00 40 1012.4
20260905182904 37 220 0.0 4.8 0.00 0.10 0.00 41 1012.4
20260905182703 37 223 1.6 4.8 0.00 0.10 0.00 40 1012.5
20260905175903 37 261 1.6 4.8 0.00 0.10 0.00 46 1012.6
20260905175804 37 250 1.6 4.8 0.00 0.10 0.00 46 1012.6
20260905175504 37 242 1.6 4.8 0.00 0.10 0.00 43 1012.6
20260905175404 37 238 1.6 6.4 0.00 0.10 0.00 44 1012.6
20260905175306 37 223 1.6 8.0 0.00 0.10 0.00 44 1012.7
20260905175203 37 220 1.6 8.0 0.00 0.10 0.00 44 1012.7
20260905175104 36 219 1.6 8.0 0.00 0.10 0.00 44 1012.7
20260905175003 36 218 1.6 8.0 0.00 0.10 0.00 44 1012.7
20260905174904 36 217 1.6 8.0 0.00 0.10 0.00 44 1012.7
20260905174803 36 216 1.6 8.0 0.00 0.10 0.00 44 1012.7
20260905174703 36 212 1.6 8.0 0.00 0.10 0.00 44 1012.8
20260905174603 36 212 1.6 8.0 0.00 0.10 0.00 46 1012.7
20260905174504 36 212 1.6 8.0 0.00 0.10 0.00 45 1012.8
20260905174403 36 214 1.6 8.0 0.00 0.10 0.00 45 1012.8
20260905174303 36 225 1.6 6.4 0.00 0.10 0.00 46 1012.8
20260905174204 36 227 1.6 6.4 0.00 0.10 0.00 46 1012.7
20260905174103 36 227 1.6 6.4 0.00 0.10 0.00 46 1012.7
20260905174004 36 225 1.6 6.4 0.00 0.10 0.00 46 1012.7
20260905173904 36 225 1.6 6.4 0.00 0.10 0.00 46 1012.8
20260905173803 36 226 1.6 6.4 0.00 0.10 0.00 45 1012.8
20260905173703 36 231 1.6 4.8 0.00 0.10 0.00 45 1012.8
20260905173603 36 235 1.6 6.4 0.00 0.10 0.00 45 1012.8
20260905173504 36 253 1.6 6.4 0.00 0.10 0.00 45 1012.8
20260905173403 36 267 1.6 6.4 0.00 0.10 0.00 45 1012.9
20260905173303 36 272 1.6 6.4 0.00 0.10 0.00 45 1012.9
20260905173203 36 275 1.6 6.4 0.00 0.10 0.00 45 1012.9
20260905173104 36 273 1.6 6.4 0.00 0.10 0.00 46 1012.9
20260905173004 36 281 1.6 6.4 0.00 0.10 0.00 47 1013.0
20260905172904 36 267 1.6 9.7 0.00 0.10 0.00 46 1012.9
20260905172803 36 270 1.6 9.7 0.00 0.10 0.00 47 1012.9
20260905172703 36 269 1.6 9.7 0.00 0.10 0.00 47 1012.9
20260905172603 36 260 1.6 9.7 0.00 0.10 0.00 48 1012.9
20260905172504 36 248 1.6 9.7 0.00 0.10 0.00 48 1012.9
20260905172403 36 242 1.6 9.7 0.00 0.10 0.00 48 1012.9
20260905172305 36 242 1.6 9.7 0.00 0.10 0.00 48 1012.9
20260905172204 36 241 1.6 9.7 0.00 0.10 0.00 47 1012.9
20260905172104 36 240 1.6 9.7 0.00 0.10 0.00 50 1013.0
20260905172003 36 238 1.6 9.7 0.00 0.10 0.00 49 1013.0
20260905171904 36 238 1.6 6.4 0.00 0.10 0.00 49 1012.9
20260905171703 36 237 1.6 6.4 0.00 0.10 0.00 50 1013.0
20260905164804 35 243 1.6 6.4 0.00 0.10 0.00 53 1013.4
20260905164603 35 242 1.6 6.4 0.00 0.10 0.00 53 1013.4
20260905164504 35 245 1.6 6.4 0.00 0.10 0.00 52 1013.4
20260905164404 35 248 1.6 6.4 0.00 0.10 0.00 52 1013.5
20260905164303 35 240 1.6 6.4 0.00 0.10 0.00 53 1013.5
20260905164203 35 240 1.6 6.4 0.00 0.10 0.00 54 1013.5
20260905164103 35 238 1.6 6.4 0.00 0.10 0.00 53 1013.5
20260905164004 35 237 1.6 6.4 0.00 0.10 0.00 52 1013.6
20260905163903 35 237 1.6 6.4 0.00 0.10 0.00 52 1013.6
20260905163804 35 237 1.6 6.4 0.00 0.10 0.00 52 1013.6
20260905163704 35 235 1.6 6.4 0.00 0.10 0.00 51 1013.6
20260905163603 35 235 1.6 6.4 0.00 0.10 0.00 53 1013.6
20260905163504 35 233 1.6 6.4 0.00 0.10 0.00 52 1013.6
20260905163404 35 235 1.6 6.4 0.00 0.10 0.00 51 1013.7
20260905163303 35 243 1.6 6.4 0.00 0.10 0.00 52 1013.6
20260905163203 35 249 1.6 6.4 0.00 0.10 0.00 52 1013.6
20260905163103 35 246 1.6 6.4 0.00 0.10 0.00 51 1013.7
20260905163004 35 245 1.6 6.4 0.00 0.10 0.00 51 1013.7
20260905162903 35 241 1.6 6.4 0.00 0.10 0.00 53 1013.6
20260905162803 35 241 1.6 6.4 0.00 0.10 0.00 52 1013.7
20260905162704 35 243 1.6 4.8 0.00 0.10 0.00 51 1013.7
20260905162603 35 236 1.6 6.4 0.00 0.10 0.00 52 1013.7
20260905162503 35 226 1.6 6.4 0.00 0.10 0.00 52 1013.7
20260905162404 35 222 1.6 6.4 0.00 0.10 0.00 52 1013.7
20260905162306 35 221 1.6 6.4 0.00 0.10 0.00 52 1013.7
20260905162203 35 218 1.6 6.4 0.00 0.10 0.00 53 1013.8
20260905162103 35 219 1.6 6.4 0.00 0.10 0.00 53 1013.7
20260905162004 35 221 1.6 6.4 0.00 0.10 0.00 53 1013.7
20260905161903 35 223 1.6 6.4 0.00 0.10 0.00 52 1013.7
20260905161803 35 230 1.6 6.4 0.00 0.10 0.00 53 1013.7
20260905161704 35 230 1.6 6.4 0.00 0.10 0.00 52 1013.7
20260905161503 35 259 0.0 4.8 0.00 0.10 0.00 54 1013.8
20260905161404 35 263 0.0 4.8 0.00 0.10 0.00 53 1013.7
20260905161303 35 277 1.6 4.8 0.00 0.10 0.00 53 1013.7
20260905161203 35 276 1.6 4.8 0.00 0.10 0.00 52 1013.8
20260905161103 35 273 1.6 4.8 0.00 0.10 0.00 52 1013.8
20260905161004 35 270 1.6 4.8 0.00 0.10 0.00 51 1013.7
20260905160903 35 265 1.6 4.8 0.00 0.10 0.00 54 1013.8
20260905160803 35 272 0.0 3.2 0.00 0.10 0.00 54 1013.8
20260905160703 34 273 0.0 3.2 0.00 0.10 0.00 55 1013.8
20260905160604 34 266 0.0 3.2 0.00 0.10 0.00 55 1013.8
20260905160503 34 260 1.6 3.2 0.00 0.10 0.00 55 1013.7
20260905160403 34 256 1.6 3.2 0.00 0.10 0.00 53 1013.8
20260905160304 34 246 1.6 3.2 0.00 0.10 0.00 53 1013.8
20260905160203 34 246 1.6 3.2 0.00 0.10 0.00 53 1013.8
20260905160004 34 245 0.0 3.2 0.00 0.10 0.00 54 1013.8
20260905155903 34 246 0.0 3.2 0.00 0.10 0.00 56 1013.8
20260905155803 34 245 0.0 3.2 0.00 0.10 0.00 57 1013.8
20260905155703 34 241 0.0 6.4 0.00 0.10 0.00 56 1013.8
20260905155604 34 242 1.6 6.4 0.00 0.10 0.00 56 1013.8
20260905155503 34 242 0.0 6.4 0.00 0.10 0.00 55 1013.8
20260905155403 34 238 1.6 6.4 0.00 0.10 0.00 56 1013.8
20260905155306 34 240 1.6 6.4 0.00 0.10 0.00 57 1013.8
20260905155203 34 240 1.6 6.4 0.00 0.10 0.00 57 1013.8
20260905155103 33 240 1.6 6.4 0.00 0.10 0.00 57 1013.8
20260905155004 33 239 1.6 6.4 0.00 0.10 0.00 56 1013.8
20260905154903 33 238 1.6 6.4 0.00 0.10 0.00 57 1013.8
20260905154803 33 235 1.6 6.4 0.00 0.10 0.00 56 1013.7
20260905154703 33 246 1.6 6.4 0.00 0.10 0.00 61 1013.8
20260905154604 33 250 1.6 6.4 0.00 0.10 0.00 61 1013.8
20260905154503 33 251 1.6 6.4 0.00 0.10 0.00 57 1013.7
20260905154403 33 258 1.6 6.4 0.00 0.10 0.00 58 1013.8
20260905154304 33 278 1.6 6.4 0.00 0.10 0.00 57 1013.8
20260905154203 33 285 1.6 6.4 0.00 0.10 0.00 58 1013.7
20260905154103 33 307 1.6 6.4 0.00 0.10 0.00 58 1013.8
20260905154004 33 332 1.6 6.4 0.00 0.10 0.00 57 1013.7
20260905153903 33 350 1.6 6.4 0.00 0.10 0.00 57 1013.8
20260905153803 33 348 1.6 4.8 0.00 0.10 0.00 57 1013.7
20260905153703 33 358 0.0 3.2 0.00 0.10 0.00 56 1013.7
20260905153604 33 353 0.0 3.2 0.00 0.10 0.00 57 1013.7
20260905153403 33 278 1.6 3.2 0.00 0.10 0.00 58 1013.7
20260905153304 33 223 1.6 8.0 0.00 0.10 0.00 58 1013.8
20260905153204 33 226 1.6 8.0 0.00 0.10 0.00 57 1013.8
20260905153103 33 222 1.6 8.0 0.00 0.10 0.00 59 1013.8
20260905153004 33 225 1.6 8.0 0.00 0.10 0.00 60 1013.8
20260905152903 33 223 1.6 8.0 0.00 0.10 0.00 59 1013.8
20260905152803 33 223 1.6 8.0 0.00 0.10 0.00 64 1013.9
20260905152703 33 219 1.6 8.0 0.00 0.10 0.00 60 1013.8
20260905152604 33 220 1.6 8.0 0.00 0.10 0.00 60 1013.9
20260905152504 33 221 1.6 8.0 0.00 0.10 0.00 59 1013.8
20260905152404 33 131 1.6 8.0 0.00 0.10 0.00 59 1013.9
20260905152306 33 60 1.6 8.0 0.00 0.10 0.00 60 1013.9
20260905152203 33 67 1.6 8.0 0.00 0.10 0.00 61 1013.9
20260905152103 33 62 1.6 8.0 0.00 0.10 0.00 62 1013.9
20260905152004 32 69 1.6 8.0 0.00 0.10 0.00 60 1013.9
20260905151904 32 56 1.6 8.0 0.00 0.10 0.00 61 1013.9
20260905151803 32 58 1.6 8.0 0.00 0.10 0.00 61 1013.9
20260905151703 32 21 1.6 8.0 0.00 0.10 0.00 61 1013.9
20260905151603 32 226 1.6 8.0 0.00 0.10 0.00 62 1013.9
20260905151403 32 229 1.6 8.0 0.00 0.10 0.00 62 1013.9
20260905151304 32 245 0.0 4.8 0.00 0.10 0.00 62 1013.9
20260905151203 32 244 0.0 4.8 0.00 0.10 0.00 63 1013.9
20260905151104 32 244 0.0 4.8 0.00 0.10 0.00 62 1013.9
20260905151004 32 245 0.0 4.8 0.00 0.10 0.00 62 1013.9
20260905150903 32 245 0.0 4.8 0.00 0.10 0.00 62 1013.9
20260905150804 32 245 1.6 4.8 0.00 0.10 0.00 62 1013.8